Вернуться в каталог

STARLINK-37620

АктивенСвязьSSO
NORAD 69214·PAYLOAD·🇺🇸 United States

Запущен May 26, 2026 с Vandenberg Space Force Base

Loading…

Ближайшие Пролёты (ближайшие 24 часа)

TLE

СвежийSource: CelesTrak SupGP

Эпоха: Sep 15, 2026, 04:05 UTC

1 69214C 26115D   26258.17062500 -.00067808  00000+0 -21053-2 0  2582
2 69214  97.2832 274.2858 0001392  91.7386 148.5742 15.33467441    10

Отслеживайте STARLINK-37620 в реальном времени с AllMySat

Download on the App Store